Theta_e
281 277 272 274 282 282 280 277 276 279 283 278 276 277 277 279 279 280 280 281 282 282 284 285 287 287 287 286 286 286 287 288 288 287 286 286 285 287 288 290 290 290 291 291
276 273 278 282 282 281 279 276 275 279 282 278 276 274 277 278 278 279 280 280 281 282 282 283 284 284 285 285 285 286 286 287 287 288 287 287 286 287 289 290 290 291 291 291
273 276 281 280 277 279 277 276 276 276 279 279 276 273 275 278 280 280 281 281 281 281 281 282 283 283 284 284 285 285 286 286 287 288 288 288 288 287 287 288 288 289 291 290
275 278 280 276 276 277 276 280 280 279 276 269 279 268 274 277 277 279 279 279 280 281 282 282 282 282 283 285 286 286 287 287 287 287 286 285 284 283 284 286 287 287 288 288
273 274 274 275 276 279 277 280 280 280 276 273 274 267 275 277 275 277 278 279 279 280 281 281 282 283 284 285 284 286 286 286 286 286 286 284 284 284 285 285 285 285 286 287
274 277 275 275 278 280 282 279 279 278 275 267 270 269 270 273 277 278 280 281 281 280 281 281 282 283 282 283 284 285 285 285 286 286 285 284 284 284 283 284 283 284 285 286
274 274 275 277 275 279 278 275 265 265 265 267 272 267 271 279 281 281 281 281 281 281 281 281 281 281 282 282 283 285 285 284 285 285 285 285 284 284 283 283 283 283 283 284
272 272 274 277 273 273 273 273 267 259 265 267 272 264 273 281 283 284 283 283 282 281 282 281 281 281 281 282 282 283 284 283 284 284 284 285 285 284 284 284 284 284 283 284
270 272 274 276 276 275 274 272 273 261 254 261 269 274 276 278 279 281 282 281 281 281 281 281 281 281 281 281 282 282 283 283 284 284 284 284 284 283 283 283 283 283 284 285
275 270 274 275 276 275 274 275 270 265 260 259 268 269 271 275 276 279 280 280 281 281 281 281 281 281 281 282 282 282 283 283 284 284 284 284 284 284 284 284 283 283 284 284
276 275 272 274 272 272 271 271 270 269 267 261 261 269 274 276 276 278 280 280 281 281 281 281 282 281 282 282 282 282 282 283 283 284 284 284 284 285 284 284 284 284 284 284
277 272 264 270 272 273 273 273 272 265 265 265 267 268 278 278 279 278 279 281 281 282 282 282 282 282 281 281 281 282 282 282 283 284 284 284 284 284 284 283 283 284 283 284
276 269 261 269 272 272 270 273 274 267 265 262 263 268 278 277 277 279 279 280 281 281 281 281 281 281 281 281 281 282 282 282 283 284 283 283 283 283 283 283 283 283 283 283
280 270 269 270 271 270 267 270 269 266 261 266 269 271 274 275 275 277 278 280 280 281 281 281 281 280 281 281 281 282 282 283 283 283 283 282 282 283 283 283 283 283 282 281
273 267 267 267 270 270 271 272 271 268 270 268 272 271 277 276 276 277 278 279 279 279 280 281 280 280 280 280 281 282 282 283 283 282 282 282 283 283 282 282 282 282 281 280
274 264 264 262 266 270 270 272 272 272 273 270 272 271 278 277 277 277 277 277 278 279 279 280 280 280 280 281 281 282 282 282 282 282 281 282 282 282 281 281 281 281 280 278
269 264 262 261 264 260 263 267 271 272 272 273 268 276 276 275 276 276 277 277 279 279 279 279 279 280 280 280 282 281 282 282 282 281 281 281 281 280 281 281 280 278 276 276
265 264 260 258 258 261 274 272 275 274 276 275 274 274 276 277 277 278 278 278 278 278 279 279 279 280 281 281 281 282 282 281 281 281 280 280 280 280 280 279 277 276 275 274
272 267 260 263 259 270 272 271 271 271 274 276 276 277 276 277 275 277 280 280 279 277 280 281 281 282 280 280 281 281 281 281 279 279 279 279 280 279 278 274 274 274 274 273
269 266 265 257 260 263 272 273 274 275 272 278 277 277 277 276 272 278 279 280 280 279 275 279 282 281 281 279 280 280 279 277 276 276 277 276 275 275 272 272 271 272 272 272
260 260 265 258 260 265 273 274 275 269 275 278 277 278 275 276 279 279 280 279 280 278 277 277 277 279 279 276 278 276 275 274 276 274 273 271 271 270 270 270 270 270 269 269
265 264 261 258 257 267 275 273 273 278 278 279 276 276 278 280 278 278 279 279 279 277 276 277 275 276 277 276 277 275 273 275 272 271 268 267 267 268 269 267 266 267 267 265
268 272 269 271 272 276 277 278 278 278 278 278 277 277 279 279 277 278 277 278 278 279 278 274 275 275 275 273 276 275 275 270 268 267 265 265 267 268 268 266 265 264 265 264
271 274 272 272 275 275 275 278 277 277 278 278 278 278 278 278 278 278 278 278 278 278 278 275 275 272 273 270 273 274 268 269 268 265 264 265 266 265 265 268 269 266 263 263
273 274 273 273 274 276 276 277 280 277 278 278 278 279 279 278 278 278 278 278 278 279 279 278 278 278 276 273 271 266 268 269 267 265 265 266 267 266 265 266 265 267 266 268
275 273 274 276 277 280 278 280 281 278 278 279 278 277 278 279 278 278 278 278 278 278 278 277 276 274 271 269 267 264 263 265 264 266 266 265 265 263 264 264 262 267 269 270
Wind_Speed
9 12 7 9 6 9 12 9 8 3 8 8 6 5 6 6 5 5 4 4 4 4 3 3 3 5 4 4 4 5 5 6 4 3 3 3 4 3 4 6 7 8 8 10
8 10 7 4 10 11 9 8 3 3 5 7 6 5 6 7 6 6 6 6 5 3 3 3 3 3 3 2 3 4 4 4 4 3 2 2 2 2 2 2 5 6 6 6
9 2 6 6 7 8 6 5 2 4 3 4 6 1 6 7 6 7 7 6 5 6 6 4 4 3 2 1 1 2 2 3 4 4 3 3 2 2 3 3 4 5 6 6
7 5 5 7 5 4 4 4 4 4 2 2 4 4 6 7 8 7 8 8 8 8 6 5 5 4 4 4 3 2 1 2 2 3 3 4 2 3 2 3 3 4 6 6
1 3 5 7 2 2 4 1 2 3 4 5 3 5 6 9 8 12 11 11 10 10 8 8 7 7 6 6 5 4 3 2 3 1 2 2 2 1 2 2 4 4 5 5
3 2 3 1 3 2 2 0 2 4 4 4 5 6 5 7 9 6 9 12 12 10 9 8 8 7 5 5 5 5 4 4 4 3 2 2 2 3 2 3 3 3 3 3
1 3 1 2 1 3 1 4 4 7 6 5 2 4 11 7 7 9 14 14 11 12 9 8 8 7 6 7 6 5 6 6 6 6 5 5 5 5 5 4 3 4 3 2
5 5 3 3 1 3 2 4 7 6 1 5 4 6 7 5 6 5 10 14 12 14 11 10 9 8 7 7 7 6 6 7 7 6 6 6 6 4 4 4 3 4 3 4
5 1 0 2 3 1 3 0 3 9 1 5 4 7 5 3 4 5 6 10 14 13 12 11 9 8 8 7 8 7 6 6 7 7 5 6 6 6 5 6 4 4 4 3
6 4 2 1 2 2 1 5 4 4 2 4 6 6 8 7 11 9 9 10 10 10 10 9 9 9 8 8 7 7 8 8 7 7 6 5 6 6 6 5 6 6 6 4
4 4 1 2 6 6 1 1 3 4 4 7 1 8 8 8 9 15 12 10 9 10 11 10 9 9 9 8 7 8 7 7 7 7 6 7 7 7 6 6 6 6 6 6
5 6 4 5 1 1 3 4 5 7 6 2 4 11 4 5 7 9 9 9 9 9 10 9 9 9 8 8 7 8 7 7 8 7 7 7 7 6 6 7 7 6 7 5
8 2 4 8 3 3 5 5 3 4 4 7 8 10 3 3 4 7 9 9 10 10 9 8 7 8 8 8 7 7 7 8 8 7 7 7 8 7 8 7 7 6 6 6
5 3 9 10 8 7 6 5 5 7 5 5 10 5 7 9 10 9 9 8 9 9 9 8 7 8 8 7 7 7 8 8 7 7 7 7 8 8 7 7 7 6 5 5
5 8 4 3 3 4 5 6 13 11 10 10 9 11 20 12 13 12 12 8 8 9 9 9 8 7 8 7 7 7 7 7 6 7 7 8 7 7 6 7 6 6 5 4
4 4 3 5 4 3 6 7 11 16 11 12 16 12 14 5 5 7 10 10 12 13 11 10 8 8 8 8 8 7 7 7 6 7 8 7 6 6 7 6 6 5 4 4
9 8 5 8 3 4 11 19 21 10 8 12 11 25 5 6 10 11 8 10 15 12 11 10 10 9 8 9 7 7 8 6 6 7 7 7 6 6 6 5 4 4 3 3
8 7 4 4 3 7 5 5 14 24 17 19 13 9 8 10 9 9 8 10 10 8 10 9 8 7 8 5 6 6 6 6 6 7 7 6 6 6 5 5 5 3 2 2
1 5 3 7 7 10 7 7 13 15 20 25 26 22 13 6 2 10 10 10 11 11 9 8 7 6 6 7 7 6 6 6 5 8 7 5 6 6 5 4 3 2 3 4
2 3 5 4 7 15 1 6 9 7 16 14 21 23 15 9 6 14 13 9 11 9 5 7 8 6 7 7 6 6 7 5 7 5 7 6 5 5 5 4 4 2 2 5
3 2 12 4 7 14 7 10 7 9 11 13 18 17 12 14 14 4 8 6 8 8 9 5 6 8 9 4 5 6 6 8 6 5 5 3 4 4 3 3 2 2 3 5
15 14 7 3 2 24 11 6 15 9 5 8 9 10 15 16 10 7 9 8 9 9 6 6 6 7 7 6 5 7 7 6 4 3 3 3 3 2 1 2 2 2 3 5
8 12 13 18 14 3 24 11 11 6 8 7 8 9 15 13 10 10 8 9 9 9 7 4 7 7 6 5 6 6 7 3 2 3 3 2 1 1 2 2 2 2 3 4
8 7 5 5 11 11 19 13 5 8 7 6 7 9 11 10 11 10 8 8 8 7 7 5 5 5 6 4 5 7 1 4 4 3 2 1 2 2 3 2 2 1 3 3
10 17 11 11 4 4 4 16 12 8 6 6 6 8 11 9 8 9 8 7 7 6 4 5 6 6 7 3 4 2 4 5 3 3 2 2 2 2 1 1 2 3 4 5
12 12 16 15 12 15 10 22 21 13 14 15 10 7 7 10 10 8 7 7 6 7 5 5 6 5 3 4 4 4 3 4 4 2 2 2 1 1 2 2 2 8 12 13
Wind_Direction
25 60 29 315 39 77 88 89 96 97 148 78 99 138 176 180 173 186 177 162 131 137 156 129 92 121 94 67 56 55 45 14 21 3 17 31 38 24 31 27 23 25 22 23
51 44 321 1 34 79 84 96 58 35 100 93 157 177 185 187 204 191 186 194 172 173 158 145 150 123 143 117 87 66 63 42 21 15 2 37 23 22 67 19 20 22 21 21
96 230 311 69 30 65 51 70 99 129 82 68 124 219 206 218 190 186 194 191 184 197 197 199 170 162 128 123 76 90 106 69 44 30 17 8 14 14 7 5 12 5 8 12
73 342 74 66 72 7 68 358 108 125 76 161 116 263 231 208 211 201 196 192 200 202 190 195 183 189 193 203 210 184 119 110 86 47 45 50 46 22 337 352 350 351 358 2
253 33 31 71 290 262 159 283 70 83 95 74 328 64 276 150 227 223 209 204 205 198 187 196 194 199 203 185 199 213 219 199 179 133 114 91 52 327 308 320 339 327 330 335
106 287 66 163 281 35 146 88 342 39 95 39 241 121 263 187 210 209 204 205 200 189 192 198 201 196 196 197 198 214 225 243 225 201 225 216 231 264 286 294 294 303 296 303
66 350 4 345 354 348 31 82 3 6 14 211 61 50 243 224 207 192 195 199 188 186 188 192 194 195 204 200 208 216 219 238 236 224 229 226 232 235 245 260 258 287 296 283
142 318 352 329 52 166 68 143 149 185 211 258 5 239 255 191 179 149 188 187 180 188 192 193 198 195 210 212 208 221 228 239 248 241 245 239 238 235 243 247 253 263 251 264
127 233 204 18 1 32 253 175 142 101 50 50 232 272 289 195 208 199 183 174 192 190 191 192 198 194 205 217 224 220 228 241 246 242 244 245 243 246 247 259 250 255 265 260
198 89 173 251 307 337 284 154 65 2 100 289 289 280 242 223 224 220 219 204 202 198 193 198 196 197 203 207 214 217 221 226 241 249 248 255 256 254 252 259 263 261 272 271
143 98 303 50 207 187 161 186 49 114 132 165 225 262 215 219 208 206 212 210 202 198 200 200 201 204 203 207 209 221 228 235 245 239 246 248 255 251 252 247 252 249 257 251
193 129 160 215 277 345 282 219 156 124 248 230 145 271 251 232 221 193 210 212 212 208 206 204 204 201 207 212 216 222 233 236 239 240 244 246 247 250 247 248 252 252 250 255
191 270 50 340 339 3 228 204 175 109 78 205 138 259 236 236 234 209 206 213 206 207 212 211 201 200 204 213 223 228 236 237 244 239 239 249 247 240 242 246 250 250 245 255
122 149 168 192 200 135 194 205 177 134 129 189 223 243 249 232 231 231 230 218 207 201 199 197 203 210 217 224 225 225 238 231 238 233 237 244 250 243 242 247 249 244 244 260
138 202 157 258 207 156 197 187 182 199 209 179 225 206 247 203 219 220 218 217 215 220 213 212 213 217 228 234 232 230 239 246 233 241 246 246 251 248 248 251 243 244 247 263
183 245 104 306 346 319 256 235 208 221 249 267 260 271 241 231 241 244 218 205 213 221 215 215 207 215 228 229 227 226 237 244 226 237 244 249 252 251 248 249 242 234 252 281
155 140 117 252 29 27 285 210 210 201 209 213 204 235 134 208 215 228 225 202 216 216 213 207 206 214 224 227 211 226 237 235 235 241 251 253 253 252 249 241 231 246 264 280
152 136 113 173 35 268 270 169 204 207 222 215 254 243 195 215 217 229 198 194 214 210 216 213 204 215 228 225 211 228 239 233 239 251 252 252 250 250 243 222 235 251 270 262
141 132 154 158 204 294 252 194 164 177 236 221 223 243 223 176 70 273 198 200 200 205 208 204 197 210 229 222 217 219 247 243 237 251 252 250 239 238 224 222 247 271 265 277
30 64 134 125 189 225 341 174 139 98 267 235 198 226 211 135 180 244 194 198 207 199 177 188 202 208 214 229 191 214 245 240 249 248 246 238 225 208 204 209 216 220 254 275
136 269 211 199 235 276 231 162 149 150 260 191 185 209 150 187 204 197 170 176 185 188 195 177 173 201 217 173 176 226 240 247 245 228 237 202 181 185 193 213 191 227 255 270
167 165 190 105 190 259 156 94 177 200 196 165 179 179 181 197 162 167 175 167 169 181 182 186 186 217 233 173 177 235 242 247 219 209 181 190 182 199 216 212 242 269 278 280
224 192 180 190 210 228 185 197 193 171 159 198 171 175 185 179 184 179 178 175 185 189 204 174 194 226 249 181 190 224 250 195 173 151 195 203 189 222 232 242 269 283 275 282
239 189 214 114 206 209 206 223 188 197 185 172 182 171 167 173 174 176 171 181 185 184 198 182 173 221 264 206 205 222 174 144 151 183 211 209 205 257 247 243 249 225 258 265
182 155 178 256 246 105 249 222 223 192 196 169 169 172 182 161 179 167 180 187 192 206 200 187 206 224 237 216 216 177 163 152 157 148 168 221 215 226 239 271 256 268 244 270
177 170 192 226 153 217 207 213 205 180 198 203 168 183 187 175 176 163 186 197 193 207 204 200 212 210 227 152 121 84 87 122 132 167 182 162 107 34 4 318 300 321 318 320